TimeEDT,TemperatureF,Dew PointF,Humidity,Sea Level PressureIn,VisibilityMPH,Wind Direction,Wind SpeedMPH,Gust SpeedMPH,PrecipitationIn,Events,Conditions,WindDirDegrees,DateUTC
12:15 AM,57.2,55.4,94,30.02,0.8,SSW,3.5,-,N/A,,Overcast,200,2012-10-05 04:15:00
12:35 AM,57.2,55.4,94,30.02,0.5,Calm,Calm,-,N/A,,Overcast,0,2012-10-05 04:35:00
12:55 AM,57.2,55.4,94,30.02,0.5,Calm,Calm,-,N/A,,Overcast,0,2012-10-05 04:55:00
1:15 AM,57.2,55.4,94,30.01,0.5,Calm,Calm,-,N/A,,Overcast,0,2012-10-05 05:15:00
1:35 AM,57.2,57.2,100,30.01,0.5,Calm,Calm,-,N/A,,Overcast,0,2012-10-05 05:35:00
1:55 AM,57.2,57.2,100,30.01,0.5,WSW,3.5,-,N/A,,Overcast,240,2012-10-05 05:55:00
2:15 AM,57.2,57.2,100,30.00,1.0,Calm,Calm,-,N/A,,Overcast,0,2012-10-05 06:15:00
2:35 AM,57.2,57.2,100,30.00,1.8,WSW,3.5,-,N/A,,Overcast,240,2012-10-05 06:35:00
2:55 AM,57.2,55.4,94,29.99,9.0,WSW,4.6,-,N/A,,Overcast,240,2012-10-05 06:55:00
3:15 AM,57.2,55.4,94,29.99,6.0,Calm,Calm,-,N/A,,Overcast,0,2012-10-05 07:15:00
3:35 AM,57.2,55.4,94,29.99,0.8,Calm,Calm,-,N/A,,Overcast,0,2012-10-05 07:35:00
3:55 AM,55.4,53.6,94,29.99,0.5,Calm,Calm,-,N/A,,Overcast,0,2012-10-05 07:55:00
4:15 AM,55.4,53.6,94,29.99,0.2,Calm,Calm,-,N/A,,Overcast,0,2012-10-05 08:15:00
4:35 AM,55.4,53.6,94,29.99,0.2,Calm,Calm,-,N/A,,Overcast,0,2012-10-05 08:35:00
5:15 AM,55.4,53.6,94,29.99,0.5,Calm,Calm,-,N/A,,Overcast,0,2012-10-05 09:15:00
5:35 AM,53.6,51.8,94,29.99,0.2,Calm,Calm,-,N/A,,Overcast,0,2012-10-05 09:35:00
5:55 AM,53.6,51.8,94,29.99,0.2,Calm,Calm,-,N/A,,Overcast,0,2012-10-05 09:55:00
6:15 AM,53.6,53.6,100,29.99,0.8,Calm,Calm,-,N/A,,Overcast,0,2012-10-05 10:15:00
6:35 AM,53.6,51.8,94,29.99,0.2,Calm,Calm,-,N/A,,Overcast,0,2012-10-05 10:35:00
6:55 AM,53.6,51.8,94,30.00,0.2,Calm,Calm,-,N/A,,Overcast,0,2012-10-05 10:55:00
7:15 AM,53.6,51.8,94,30.00,0.2,Calm,Calm,-,N/A,,Overcast,0,2012-10-05 11:15:00
7:35 AM,55.4,55.4,100,30.00,6.0,Calm,Calm,-,N/A,,Overcast,0,2012-10-05 11:35:00
7:55 AM,57.2,55.4,94,30.00,4.0,Calm,Calm,-,N/A,,Overcast,0,2012-10-05 11:55:00
8:15 AM,57.2,55.4,94,30.00,3.0,WSW,3.5,-,N/A,,Overcast,240,2012-10-05 12:15:00
8:35 AM,57.2,55.4,94,29.99,5.0,WNW,3.5,-,N/A,,Overcast,290,2012-10-05 12:35:00
8:55 AM,59.0,57.2,94,30.00,6.0,Calm,Calm,-,N/A,,Overcast,0,2012-10-05 12:55:00
9:15 AM,59.0,55.4,88,30.00,9.0,South,3.5,-,N/A,,Overcast,180,2012-10-05 13:15:00
9:35 AM,60.8,57.2,88,30.00,10.0,SW,3.5,-,N/A,,Overcast,220,2012-10-05 13:35:00
9:55 AM,62.6,57.2,82,30.00,10.0,WSW,4.6,-,N/A,,Overcast,250,2012-10-05 13:55:00
10:15 AM,62.6,57.2,82,29.99,10.0,SSW,5.8,-,N/A,,Overcast,200,2012-10-05 14:15:00
10:35 AM,64.4,57.2,77,29.99,10.0,SSW,6.9,-,N/A,,Overcast,210,2012-10-05 14:35:00
10:55 AM,66.2,59.0,78,29.99,10.0,WSW,4.6,-,N/A,,Overcast,240,2012-10-05 14:55:00
11:15 AM,66.2,60.8,83,29.98,10.0,SW,4.6,-,N/A,,Overcast,230,2012-10-05 15:15:00
11:35 AM,68.0,60.8,78,29.98,10.0,SSW,6.9,-,N/A,,Mostly Cloudy,210,2012-10-05 15:35:00
11:55 AM,69.8,60.8,73,29.97,10.0,SW,5.8,-,N/A,,Scattered Clouds,230,2012-10-05 15:55:00
12:35 PM,73.4,59.0,61,29.96,10.0,WSW,9.2,-,N/A,,Mostly Cloudy,250,2012-10-05 16:35:00
12:55 PM,73.4,59.0,61,29.95,10.0,WSW,10.4,-,N/A,,Scattered Clouds,250,2012-10-05 16:55:00
1:15 PM,75.2,57.2,53,29.94,10.0,West,4.6,-,N/A,,Partly Cloudy,270,2012-10-05 17:15:00
1:35 PM,75.2,57.2,53,29.94,10.0,WSW,4.6,-,N/A,,Clear,240,2012-10-05 17:35:00
1:55 PM,75.2,55.4,50,29.93,10.0,West,5.8,-,N/A,,Clear,260,2012-10-05 17:55:00
2:35 PM,77.0,55.4,47,29.93,10.0,West,10.4,-,N/A,,Clear,270,2012-10-05 18:35:00
2:55 PM,75.2,53.6,47,29.92,10.0,WNW,6.9,-,N/A,,Clear,300,2012-10-05 18:55:00
3:15 PM,77.0,55.4,47,29.91,10.0,WNW,8.1,-,N/A,,Clear,290,2012-10-05 19:15:00
3:35 PM,77.0,53.6,44,29.90,10.0,West,4.6,-,N/A,,Clear,260,2012-10-05 19:35:00
3:55 PM,75.2,55.4,50,29.89,10.0,Calm,Calm,-,N/A,,Clear,0,2012-10-05 19:55:00
4:15 PM,75.2,55.4,50,29.90,10.0,West,4.6,-,N/A,,Clear,260,2012-10-05 20:15:00
4:35 PM,75.2,55.4,50,29.90,10.0,SW,5.8,-,N/A,,Clear,220,2012-10-05 20:35:00
4:55 PM,75.2,55.4,50,29.90,10.0,SSW,5.8,-,N/A,,Clear,210,2012-10-05 20:55:00
5:15 PM,73.4,57.2,57,29.91,10.0,SW,5.8,-,N/A,,Clear,230,2012-10-05 21:15:00
5:35 PM,71.6,57.2,60,29.90,10.0,South,3.5,-,N/A,,Clear,180,2012-10-05 21:35:00
5:55 PM,69.8,57.2,64,29.90,10.0,Calm,Calm,-,N/A,,Clear,0,2012-10-05 21:55:00
6:15 PM,66.2,60.8,83,29.91,10.0,ENE,3.5,-,N/A,,Clear,60,2012-10-05 22:15:00
6:35 PM,64.4,60.8,88,29.91,10.0,Calm,Calm,-,N/A,,Clear,0,2012-10-05 22:35:00
6:55 PM,62.6,59.0,88,29.91,9.0,Calm,Calm,-,N/A,,Clear,0,2012-10-05 22:55:00
7:15 PM,62.6,57.2,82,29.91,8.0,Calm,Calm,-,N/A,,Clear,0,2012-10-05 23:15:00
7:35 PM,60.8,57.2,88,29.91,9.0,SSW,3.5,-,N/A,,Clear,200,2012-10-05 23:35:00
7:55 PM,60.8,57.2,88,29.91,10.0,Calm,Calm,-,N/A,,Clear,0,2012-10-05 23:55:00
8:15 PM,60.8,57.2,88,29.91,10.0,South,3.5,-,N/A,,Clear,180,2012-10-06 00:15:00
8:35 PM,57.2,55.4,94,29.91,10.0,Calm,Calm,-,N/A,,Clear,0,2012-10-06 00:35:00
8:55 PM,57.2,55.4,94,29.91,5.0,South,3.5,-,N/A,,Clear,180,2012-10-06 00:55:00
9:15 PM,57.2,55.4,94,29.91,10.0,Calm,Calm,-,N/A,,Clear,0,2012-10-06 01:15:00
9:35 PM,57.2,53.6,88,29.91,7.0,Calm,Calm,-,N/A,,Clear,0,2012-10-06 01:35:00
9:55 PM,55.4,53.6,94,29.90,5.0,SSW,3.5,-,N/A,,Clear,210,2012-10-06 01:55:00
10:15 PM,55.4,53.6,94,29.90,7.0,SW,5.8,-,N/A,,Clear,220,2012-10-06 02:15:00
10:35 PM,59.0,55.4,88,29.90,9.0,SSW,5.8,-,N/A,,Clear,200,2012-10-06 02:35:00
10:55 PM,60.8,55.4,82,29.89,10.0,SSW,5.8,-,N/A,,Clear,200,2012-10-06 02:55:00
11:35 PM,60.8,55.4,82,29.89,10.0,South,3.5,-,N/A,,Clear,190,2012-10-06 03:35:00
11:55 PM,57.2,55.4,94,29.89,8.0,Calm,Calm,-,N/A,,Clear,0,2012-10-06 03:55:00